SB KEPS @ AMSAT $ORB10140.O Orbital Elements 10140.OSCAR
HR AMSAT ORBITAL ELEMENTS FOR OSCAR SATELLITES FROM WA5QGD FORT WORTH,TX May 20, 2010 Send Subscribe/unsubscribe to KEPS at http://www.amsat.org/mailman/listinfo/keps BID: ORB10140.O TO ALL RADIO AMATEURS BT
Satellite: AO-07 Catalog number: 07530 Epoch time: 10139.63202253 Element set: 780 Inclination: 101.4006 deg RA of node: 156.6057 deg Eccentricity: 0.0011786 Arg of perigee: 331.7236 deg Mean anomaly: 028.3194 deg Mean motion: 12.53578482 rev/day Decay rate: -2.7e-07 rev/day^2 Epoch rev: 62487 Checksum: 284
Satellite: FO-29 Catalog number: 24278 Epoch time: 10139.92846454 Element set: 0329 Inclination: 098.5148 deg RA of node: 332.9670 deg Eccentricity: 0.0350520 Arg of perigee: 196.9997 deg Mean anomaly: 161.9159 deg Mean motion: 13.52951588 rev/day Decay rate: 2.45e-06 rev/day^2 Epoch rev: 67928 Checksum: 366
Satellite: SO-33 Catalog number: 25509 Epoch time: 10140.65175148 Element set: 715 Inclination: 031.4325 deg RA of node: 304.2249 deg Eccentricity: 0.0353292 Arg of perigee: 049.1493 deg Mean anomaly: 313.9186 deg Mean motion: 14.28305693 rev/day Decay rate: 1.35e-06 rev/day^2 Epoch rev: 60411 Checksum: 282
Satellite: RS-22 Catalog number: 27939 Epoch time: 10140.63753597 Element set: 197 Inclination: 097.8966 deg RA of node: 007.2879 deg Eccentricity: 0.0014258 Arg of perigee: 142.8113 deg Mean anomaly: 217.4072 deg Mean motion: 14.63417831 rev/day Decay rate: 8.2e-07 rev/day^2 Epoch rev: 35492 Checksum: 325
Satellite: VO-52 Catalog number: 28650 Epoch time: 10139.90620257 Element set: 0506 Inclination: 097.6943 deg RA of node: 194.4401 deg Eccentricity: 0.0027341 Arg of perigee: 011.9056 deg Mean anomaly: 348.2831 deg Mean motion: 14.81744663 rev/day Decay rate: -.00000000 rev/day^2 Epoch rev: 27250 Checksum: 277
Satellite: SO-67 Catalog number: 35870 Epoch time: 10140.75365447 Element set: 744 Inclination: 097.3336 deg RA of node: 190.6112 deg Eccentricity: 0.0002912 Arg of perigee: 163.2687 deg Mean anomaly: 329.4761 deg Mean motion: 15.20884882 rev/day Decay rate: 4.23e-06 rev/day^2 Epoch rev: 3728 Checksum: 313
Satellite: HO-68 Catalog number: 36122 Epoch time: 10140.73322578 Element set: 322 Inclination: 100.4701 deg RA of node: 201.4381 deg Eccentricity: 0.0007912 Arg of perigee: 040.2591 deg Mean anomaly: 319.9107 deg Mean motion: 13.16280760 rev/day Decay rate: -4.5e-07 rev/day^2 Epoch rev: 2060 Checksum: 243
/EX SB KEPS @ AMSAT $ORB10140.D Orbital Elements 10140.MICROS
HR AMSAT ORBITAL ELEMENTS FOR THE MICROSATS FROM WA5QGD FORT WORTH,TX May 20, 2010 Send Subscribe/unsubscribe to KEPS at http://www.amsat.org/mailman/listinfo/keps BID: ORB10140.D TO ALL RADIO AMATEURS BT
Satellite: UO-11 Catalog number: 14781 Epoch time: 10139.89346533 Element set: 0245 Inclination: 098.0550 deg RA of node: 191.5443 deg Eccentricity: 0.0008755 Arg of perigee: 337.4673 deg Mean anomaly: 022.6129 deg Mean motion: 14.79799956 rev/day Decay rate: -2.42e-06 rev/day^2 Epoch rev: 40762 Checksum: 327
Satellite: AO-16 Catalog number: 20439 Epoch time: 10139.67814419 Element set: 898 Inclination: 098.3309 deg RA of node: 098.7106 deg Eccentricity: 0.0009943 Arg of perigee: 249.3266 deg Mean anomaly: 110.6849 deg Mean motion: 14.31860885 rev/day Decay rate: -7.0e-08 rev/day^2 Epoch rev: 6130 Checksum: 327
Satellite: LO-19 Catalog number: 20442 Epoch time: 10139.47084216 Element set: 0810 Inclination: 098.2916 deg RA of node: 104.4299 deg Eccentricity: 0.0011044 Arg of perigee: 244.7802 deg Mean anomaly: 115.2221 deg Mean motion: 14.32092197 rev/day Decay rate: -4.1e-07 rev/day^2 Epoch rev: 06144 Checksum: 262
Satellite: AO-27 Catalog number: 22825 Epoch time: 10140.64139831 Element set: 533 Inclination: 098.4850 deg RA of node: 089.3071 deg Eccentricity: 0.0008354 Arg of perigee: 357.3488 deg Mean anomaly: 002.7646 deg Mean motion: 14.29297761 rev/day Decay rate: 9.5e-07 rev/day^2 Epoch rev: 86811 Checksum: 322
Satellite: IO-26 Catalog number: 22826 Epoch time: 10140.64179393 Element set: 270 Inclination: 098.4784 deg RA of node: 089.9195 deg Eccentricity: 0.0008791 Arg of perigee: 352.4020 deg Mean anomaly: 007.7029 deg Mean motion: 14.29553166 rev/day Decay rate: 1.8e-07 rev/day^2 Epoch rev: 86822 Checksum: 320
Satellite: GO-32 Catalog number: 25397 Epoch time: 10139.83814229 Element set: 189 Inclination: 098.3120 deg RA of node: 148.8498 deg Eccentricity: 0.0001383 Arg of perigee: 038.3484 deg Mean anomaly: 321.7777 deg Mean motion: 14.23178093 rev/day Decay rate: 3.7e-07 rev/day^2 Epoch rev: 61601 Checksum: 317
Satellite: NO-44 Catalog number: 26931 Epoch time: 10140.42973471 Element set: 462 Inclination: 067.0523 deg RA of node: 275.4883 deg Eccentricity: 0.0005717 Arg of perigee: 260.8128 deg Mean anomaly: 099.2306 deg Mean motion: 14.29596622 rev/day Decay rate: -1.23e-06 rev/day^2 Epoch rev: 45078 Checksum: 307
Satellite: SO-50 Catalog number: 27607 Epoch time: 10139.39754202 Element set: 0178 Inclination: 064.5587 deg RA of node: 083.9612 deg Eccentricity: 0.0034518 Arg of perigee: 090.9764 deg Mean anomaly: 269.5289 deg Mean motion: 14.71538189 rev/day Decay rate: -9.4e-07 rev/day^2 Epoch rev: 39814 Checksum: 347
Satellite: CO-55 Catalog number: 27844 Epoch time: 10139.50171133 Element set: 0850 Inclination: 098.7088 deg RA of node: 148.8874 deg Eccentricity: 0.0008902 Arg of perigee: 255.5480 deg Mean anomaly: 104.4721 deg Mean motion: 14.20707082 rev/day Decay rate: 5.8e-07 rev/day^2 Epoch rev: 35701 Checksum: 301
Satellite: CO-57 Catalog number: 27848 Epoch time: 10139.52710910 Element set: 799 Inclination: 098.7135 deg RA of node: 148.0017 deg Eccentricity: 0.0008741 Arg of perigee: 260.1426 deg Mean anomaly: 099.8759 deg Mean motion: 14.20499719 rev/day Decay rate: 5.8e-07 rev/day^2 Epoch rev: 35697 Checksum: 347
Satellite: AO-51 Catalog number: 28375 Epoch time: 10139.95123937 Element set: 0680 Inclination: 098.0619 deg RA of node: 135.0583 deg Eccentricity: 0.0083187 Arg of perigee: 182.4481 deg Mean anomaly: 177.6295 deg Mean motion: 14.40684752 rev/day Decay rate: 3.6e-07 rev/day^2 Epoch rev: 30944 Checksum: 329
Satellite: GENESAT1 Catalog number: 29655 Epoch time: 10139.58208417 Element set: 0062 Inclination: 040.0169 deg RA of node: 214.8774 deg Eccentricity: 0.0007096 Arg of perigee: 096.0813 deg Mean anomaly: 264.0823 deg Mean motion: 15.88045178 rev/day Decay rate: 8.4350e-04 rev/day^2 Epoch rev: 19543 Checksum: 308
Satellite: CP3 Catalog number: 31129 Epoch time: 10139.69145111 Element set: 0582 Inclination: 097.9405 deg RA of node: 180.7829 deg Eccentricity: 0.0101076 Arg of perigee: 323.0929 deg Mean anomaly: 036.3329 deg Mean motion: 14.52254224 rev/day Decay rate: 1.31e-06 rev/day^2 Epoch rev: 16372 Checksum: 278
Satellite: CO-65 Catalog number: 32785 Epoch time: 10140.88127426 Element set: 685 Inclination: 097.8979 deg RA of node: 206.1829 deg Eccentricity: 0.0015583 Arg of perigee: 018.0034 deg Mean anomaly: 342.1723 deg Mean motion: 14.81653017 rev/day Decay rate: 4.01e-06 rev/day^2 Epoch rev: 11144 Checksum: 298
Satellite: KKS-1 Catalog number: 33493 Epoch time: 10140.75611959 Element set: 499 Inclination: 098.0831 deg RA of node: 260.0179 deg Eccentricity: 0.0018960 Arg of perigee: 227.6600 deg Mean anomaly: 132.3013 deg Mean motion: 14.80983198 rev/day Decay rate: 3.70e-06 rev/day^2 Epoch rev: 7142 Checksum: 293
Satellite: SOHLA-1 Catalog number: 33496 Epoch time: 10140.44766518 Element set: 107 Inclination: 098.0565 deg RA of node: 249.8854 deg Eccentricity: 0.0005480 Arg of perigee: 295.3407 deg Mean anomaly: 064.7233 deg Mean motion: 14.69493595 rev/day Decay rate: 1.23e-06 rev/day^2 Epoch rev: 7080 Checksum: 312
/EX SB KEPS @ AMSAT $ORB10140.W Orbital Elements 10140.WEATHER
HR AMSAT ORBITAL ELEMENTS FOR WEATHER SATELLITES FROM WA5QGD FORT WORTH,TX May 20, 2010 Send Subscribe/unsubscribe to KEPS at http://www.amsat.org/mailman/listinfo/keps BID: ORB10140.W TO ALL RADIO AMATEURS BT
Satellite: NOAA-10 Catalog number: 16969 Epoch time: 10139.76392665 Element set: 0071 Inclination: 098.6578 deg RA of node: 168.9959 deg Eccentricity: 0.0011252 Arg of perigee: 297.2383 deg Mean anomaly: 062.7658 deg Mean motion: 14.27415746 rev/day Decay rate: -1.02e-06 rev/day^2 Epoch rev: 23152 Checksum: 335
Satellite: NOAA-11 Catalog number: 19531 Epoch time: 10139.74230094 Element set: 0083 Inclination: 098.7689 deg RA of node: 229.2494 deg Eccentricity: 0.0010756 Arg of perigee: 227.1052 deg Mean anomaly: 132.9230 deg Mean motion: 14.14925090 rev/day Decay rate: -5.0e-07 rev/day^2 Epoch rev: 11711 Checksum: 275
Satellite: NOAA-12 Catalog number: 21263 Epoch time: 10139.85642063 Element set: 0570 Inclination: 098.7652 deg RA of node: 153.0190 deg Eccentricity: 0.0011348 Arg of perigee: 248.1888 deg Mean anomaly: 111.8080 deg Mean motion: 14.25633186 rev/day Decay rate: 2.2e-07 rev/day^2 Epoch rev: 98836 Checksum: 296
Satellite: MET-3/5 Catalog number: 21655 Epoch time: 10139.91982044 Element set: 0817 Inclination: 082.5568 deg RA of node: 328.6098 deg Eccentricity: 0.0014686 Arg of perigee: 062.6828 deg Mean anomaly: 297.5726 deg Mean motion: 13.17023610 rev/day Decay rate: 5.1e-07 rev/day^2 Epoch rev: 90195 Checksum: 324
Satellite: MET-2/21 Catalog number: 22782 Epoch time: 10139.87236522 Element set: 0781 Inclination: 082.5472 deg RA of node: 274.9023 deg Eccentricity: 0.0023704 Arg of perigee: 120.1895 deg Mean anomaly: 240.1632 deg Mean motion: 13.83644764 rev/day Decay rate: 3.3e-07 rev/day^2 Epoch rev: 84416 Checksum: 292
Satellite: OKEAN-4 Catalog number: 23317 Epoch time: 10139.70986379 Element set: 0237 Inclination: 082.5409 deg RA of node: 020.4417 deg Eccentricity: 0.0021756 Arg of perigee: 340.6094 deg Mean anomaly: 019.4307 deg Mean motion: 14.82816567 rev/day Decay rate: 2.11e-06 rev/day^2 Epoch rev: 84223 Checksum: 293
